Location: Doschendorf
(50.0069°N, 11.0602°E)
Time: 18:11:58
(UTC+00:00)

Helios 1A Rocket - Pass Details

Date: 17 November 2019
Orbit: 563 x 588 km, 98.3° (Epoch: 13 December)

Event Time Altitude Azimuth Distance (km) Brightness Sun altitude
Rises 16:11:52 0° 181° (S) 2,807 6.7 -7.0°
Reaches altitude 10° 16:14:05 10° 187° (S) 1,912 6.0 -7.3°
Maximum altitude 16:18:04 44° 260° (W) 823 4.4 -7.9°
Drops below altitude 10° 16:22:04 10° 334° (NNW) 1,924 5.7 -8.5°
Sets 16:24:19 0° 341° (NNW) 2,828 6.5 -8.8°
